Vorticity
-2 1 -0 4 6 10 16 17 18 14 10 13 14 10 14 13 16 14 8 8 9 13 16 22 21 -4 12 18 4 7 3 19 9 6 3 11 13 3 9 4 6 16 -0 23 25 9 14 20 24 -1 12 12 4 13
1 3 1 -1 -1 6 19 15 13 7 11 14 13 11 13 13 12 9 7 7 6 11 4 13 11 29 -10 12 12 10 -5 6 4 16 10 18 4 4 7 5 13 10 -19 4 -9 20 -6 1 16 19 -8 13 12 19
2 0 -0 -2 -0 5 15 14 10 9 11 10 12 12 12 12 12 8 8 4 6 14 28 29 18 26 24 -8 13 18 10 -11 12 3 -15 14 -5 21 2 22 5 9 14 -14 3 30 -6 -7 5 12 10 34 -4 7
4 1 -2 -4 -3 7 9 13 10 6 8 11 11 13 11 11 14 11 7 8 10 7 35 16 45 16 23 29 4 5 8 18 3 -14 -1 7 14 13 13 2 14 11 12 19 5 1 -7 -5 16 9 13 9 1 22
1 1 -1 1 -1 7 5 12 11 8 9 8 10 12 10 11 18 10 11 19 25 23 12 37 18 21 14 18 30 24 7 9 4 5 8 5 11 -11 8 8 11 1 -4 -4 -4 15 13 20 8 15 10 6 9 8
-1 3 2 6 7 6 2 4 10 14 9 8 11 8 13 15 10 17 14 13 9 12 8 12 10 6 16 29 25 19 14 16 20 20 2 -7 -16 11 15 27 30 22 9 31 4 2 3 1 -2 1 4 5 9 10
10 7 8 10 7 4 5 6 12 10 12 5 10 10 13 14 17 10 17 22 26 19 17 23 11 -5 7 26 24 27 27 20 25 32 23 7 33 14 8 -6 -7 0 32 18 24 22 7 4 2 6 9 11 11 11
6 5 8 10 11 7 4 2 8 11 13 8 9 8 12 17 16 16 16 9 7 12 19 14 9 15 5 -7 0 21 22 26 26 16 42 46 -50 52 25 26 5 6 11 16 15 9 9 11 11 9 7 5 5 9
7 9 9 5 10 7 3 2 10 9 11 8 7 9 13 20 8 16 8 6 9 18 8 11 9 11 5 9 11 15 14 -2 13 18 38 -27 18 -8 0 48 26 6 -4 11 14 19 20 18 15 12 9 15 18 14
6 11 5 8 8 5 6 3 10 24 11 11 11 13 23 3 17 15 17 19 15 13 11 8 10 14 -2 16 9 11 4 4 4 26 -4 22 4 22 30 32 8 -1 19 -6 -2 3 6 5 2 3 6 14 10 10
6 6 6 7 6 5 6 5 5 21 11 9 8 12 11 16 19 24 14 11 12 12 12 7 6 9 12 7 12 10 10 10 10 21 2 12 7 15 20 13 5 10 7 1 10 18 20 20 23 18 15 16 18 20
10 10 4 6 7 6 5 8 11 16 9 10 10 10 21 33 17 13 12 13 10 12 10 8 7 9 12 2 17 17 12 14 5 10 10 13 15 23 31 27 12 23 20 18 18 17 14 16 14 21 14 14 18 24
14 11 6 7 7 5 7 5 22 9 10 9 15 30 19 13 9 6 12 15 11 9 6 8 12 12 13 17 13 10 13 8 14 12 10 4 5 6 10 28 25 18 9 28 22 21 19 28 19 17 22 26 24 22
14 10 7 10 9 6 7 16 13 5 9 18 26 11 10 14 9 11 10 -0 -0 9 3 11 15 7 11 13 12 11 10 10 12 10 5 4 13 13 18 21 8 5 27 -1 4 10 11 11 13 17 17 14 11 9
11 12 7 10 10 5 16 15 8 4 12 18 19 14 16 5 2 2 1 2 13 19 11 10 12 15 11 7 13 10 11 13 9 6 3 15 -3 6 26 18 7 10 11 4 8 4 8 3 -2 -0 0 -2 -2 -4
9 12 6 13 10 14 16 6 -11 5 11 17 -2 -15 -5 -2 8 11 12 11 9 10 16 21 17 15 19 9 13 9 10 12 3 2 -1 2 12 13 27 30 8 6 11 15 6 2 1 2 4 2 1 2 2 5
14 20 16 16 3 19 27 10 1 9 11 -3 -2 14 19 22 24 8 1 2 3 7 8 14 13 11 10 16 11 14 6 3 -2 8 18 18 21 21 19 18 18 3 23 10 4 3 5 4 2 4 6 4 6 8
16 17 11 7 10 30 10 2 12 8 7 10 15 9 7 2 3 3 4 5 10 14 16 17 2 -0 -1 8 3 2 2 10 9 15 7 -0 4 9 23 16 16 14 7 7 5 4 3 4 7 7 6 9 11 16
12 11 13 16 15 9 27 6 5 -3 -4 8 12 14 16 14 18 16 17 18 16 17 15 9 13 20 29 19 4 -8 -7 3 5 3 -6 -8 6 -1 2 13 16 14 11 9 9 8 8 8 8 9 10 11 13 12
14 11 14 22 29 23 1 25 9 26 7 10 18 18 13 12 12 10 11 13 12 11 10 4 17 22 20 19 8 2 0 9 22 9 12 8 7 13 8 3 5 5 5 5 3 4 6 8 9 10 11 11 12 12
13 9 6 -4 9 -12 35 -27 20 24 22 30 1 21 12 9 8 8 5 6 10 16 15 19 22 19 21 28 23 24 29 24 22 7 3 15 8 14 10 -0 10 10 5 3 2 1 4 7 8 10 11 12 12 11
19 17 19 12 25 27 12 -4 8 13 6 4 29 17 12 12 10 10 9 6 14 9 13 12 13 14 15 14 14 15 17 21 19 18 19 21 0 10 5 6 7 5 5 2 -2 10 18 15 12 10 11 14 13 11
22 20 5 35 18 7 29 16 1 -4 3 27 13 17 8 6 5 5 14 9 9 7 5 7 9 18 15 7 10 17 20 16 14 14 18 16 22 12 2 11 17 17 17 18 18 15 11 10 10 9 11 13 12 11
1 45 5 17 9 24 32 4 31 4 11 0 21 7 12 6 8 9 3 6 6 8 7 6 7 9 9 11 13 16 16 22 30 32 25 16 18 26 16 2 13 16 12 8 7 7 9 10 11 11 14 13 13 13
53 30 -25 2 38 4 10 5 14 25 8 14 8 -5 4 7 8 6 3 2 8 16 11 8 3 6 7 8 9 8 7 7 4 10 27 27 24 30 18 14 12 12 14 18 21 19 17 13 13 14 13 13 12 12
-2 22 2 22 8 8 16 22 29 24 16 9 5 10 16 17 16 1 6 9 17 15 12 8 5 7 3 1 -2 -3 -3 4 8 14 9 3 18 29 30 14 6 9 6 6 12 16 16 14 12 11 10 11 11 11
4 9 19 12 16 11 20 11 7 12 12 13 9 13 14 14 16 11 24 17 18 14 11 6 4 6 3 -1 -4 -5 -5 7 14 14 7 14 13 7 4 6 10 10 10 11 13 14 14 14 14 14 14 13 10 10
15 10 12 21 8 1 2 7 8 10 11 7 4 -3 5 -13 -1 6 4 4 13 8 4 4 4 4 4 5 6 3 7 14 12 11 12 15 9 9 9 9 12 12 11 10 11 9 8 11 11 11 13 14 10 9
12 1 -2 4 6 11 15 13 8 8 6 4 3 1 3 2 3 3 -0 -1 3 4 2 0 3 0 5 6 9 11 10 10 11 8 10 11 16 20 8 8 6 6 9 10 10 9 9 6 8 7 11 13 9 11
5 2 1 6 9 11 11 13 11 11 9 7 6 7 9 11 12 10 9 9 8 8 11 13 11 8 8 8 8 8 8 8 9 9 9 11 11 11 19 15 5 5 10 10 11 11 12 12 11 9 10 12 10 12
13 16 14 12 16 21 13 7 7 9 10 12 12 9 13 13 19 18 16 14 12 15 18 22 21 17 19 17 18 15 7 7 8 9 10 8 5 10 18 26 13 5 8 14 7 3 6 9 14 15 15 13 12 10
25 15 10 8 10 3 6 7 8 6 10 15 12 12 8 8 5 12 6 15 23 24 25 14 12 16 12 12 14 18 21 19 14 12 10 10 16 19 19 22 13 4 11 11 9 16 20 19 18 17 15 11 9 8
-1 2 6 7 5 6 10 12 21 28 11 13 21 26 22 19 22 23 30 28 26 25 22 15 6 9 8 8 15 12 20 25 27 23 22 19 19 20 22 14 8 9 12 18 19 17 16 15 12 10 10 9 10 12
Height
3061 3062 3062 3063 3060 3057 3052 3046 3043 3041 3038 3033 3029 3026 3022 3017 3014 3011 3008 3007 3007 3002 3001 3001 3002 3004 3006 3008 3011 3014 3016 3017 3020 3021 3022 3022 3022 3022 3023 3023 3023 3025 3028 3028 3030 3030 3026 3022 3024 3026 3026 3025 3027 3028
3058 3058 3059 3058 3056 3053 3050 3045 3041 3038 3036 3032 3028 3024 3019 3015 3012 3010 3008 3004 2999 3000 2999 2995 2995 2996 3000 3003 3006 3009 3012 3013 3015 3016 3018 3019 3019 3019 3020 3020 3020 3023 3021 3023 3024 3022 3021 3021 3021 3021 3023 3024 3025 3026
3054 3054 3054 3053 3052 3050 3046 3042 3038 3036 3033 3029 3026 3022 3017 3013 3009 3006 3003 3002 2998 2991 2991 2989 2987 2989 2992 2996 2998 3002 3008 3009 3010 3011 3014 3014 3015 3016 3016 3016 3017 3016 3018 3018 3019 3018 3018 3019 3019 3019 3020 3022 3023 3024
3050 3050 3050 3050 3048 3046 3043 3040 3036 3031 3029 3026 3023 3019 3014 3011 3008 3003 3000 2997 2995 2990 2983 2984 2981 2983 2986 2988 2992 2997 3001 3003 3005 3007 3008 3009 3010 3012 3012 3013 3013 3014 3014 3014 3014 3015 3015 3016 3016 3017 3018 3019 3020 3020
3046 3046 3047 3047 3046 3043 3040 3038 3033 3027 3025 3021 3018 3014 3011 3007 3003 2999 2997 2994 2990 2991 2982 2980 2981 2982 2984 2984 2985 2989 2992 2994 2995 2998 3000 3002 3005 3007 3007 3008 3007 3008 3010 3010 3010 3011 3010 3011 3013 3013 3015 3016 3017 3017
3042 3041 3043 3043 3042 3040 3038 3034 3030 3025 3021 3018 3014 3011 3007 3003 2999 2996 2991 2990 2990 2986 2983 2980 2982 2982 2982 2981 2981 2982 2984 2984 2985 2989 2991 2994 2997 3001 3001 3000 3001 3004 3005 3006 3006 3007 3007 3008 3009 3010 3010 3010 3011 3012
3038 3038 3038 3038 3037 3036 3034 3031 3026 3022 3018 3014 3012 3008 3004 3001 2998 2995 2994 2989 2986 2986 2985 2981 2981 2983 2982 2981 2979 2978 2977 2977 2979 2980 2982 2988 2991 2992 2992 2994 2998 2999 2999 3000 3001 3002 3002 3003 3003 3004 3005 3005 3005 3006
3033 3033 3034 3033 3032 3031 3030 3027 3022 3017 3014 3011 3007 3004 3002 2998 2996 2993 2990 2990 2986 2985 2985 2983 2982 2983 2982 2981 2979 2976 2974 2974 2975 2977 2979 2982 2983 2984 2985 2988 2993 2994 2994 2995 2996 2996 2996 2997 2998 2998 2998 2998 2998 2998
3028 3028 3029 3028 3028 3026 3024 3023 3019 3015 3010 3008 3005 3002 2999 2996 2993 2993 2989 2989 2987 2988 2985 2984 2982 2983 2983 2982 2980 2978 2976 2976 2976 2976 2979 2984 2981 2980 2982 2985 2987 2989 2989 2990 2990 2991 2991 2991 2992 2992 2992 2991 2990 2990
3023 3022 3022 3022 3022 3022 3021 3019 3016 3011 3008 3006 3004 3001 2997 2994 2993 2992 2988 2985 2986 2984 2984 2985 2983 2983 2983 2982 2981 2981 2979 2980 2979 2980 2982 2980 2975 2978 2979 2980 2983 2984 2985 2985 2985 2986 2987 2986 2986 2985 2984 2984 2983 2983
3018 3018 3018 3017 3016 3017 3016 3013 3011 3006 3005 3002 3000 2997 2994 2992 2991 2989 2988 2986 2986 2984 2983 2985 2984 2982 2983 2982 2982 2982 2981 2980 2979 2979 2979 2976 2973 2974 2975 2976 2977 2978 2980 2980 2980 2979 2979 2978 2978 2978 2978 2976 2975 2974
3013 3013 3013 3012 3011 3011 3010 3006 3005 3002 3000 2999 2997 2995 2993 2990 2988 2989 2988 2986 2985 2984 2983 2984 2983 2982 2982 2982 2981 2981 2980 2979 2978 2978 2976 2972 2971 2970 2970 2970 2971 2972 2974 2974 2974 2974 2974 2974 2974 2973 2973 2972 2970 2969
3007 3007 3007 3006 3006 3004 3003 3003 3002 2999 2997 2996 2994 2992 2992 2989 2989 2987 2987 2985 2984 2984 2983 2982 2982 2982 2981 2981 2980 2979 2978 2978 2977 2975 2973 2971 2970 2969 2968 2967 2968 2970 2971 2971 2971 2971 2972 2971 2971 2971 2970 2969 2968 2967
3000 3000 2999 3000 3001 2999 2997 2996 2995 2996 2994 2993 2991 2991 2991 2987 2984 2984 2985 2984 2984 2982 2981 2981 2980 2980 2979 2979 2978 2977 2976 2976 2974 2972 2971 2971 2969 2968 2967 2967 2968 2968 2969 2971 2971 2970 2970 2970 2970 2970 2969 2969 2968 2968
2993 2993 2992 2994 2994 2992 2992 2992 2992 2992 2992 2991 2989 2986 2984 2986 2984 2982 2982 2981 2980 2979 2979 2979 2978 2978 2977 2977 2976 2975 2974 2972 2971 2971 2971 2969 2968 2967 2966 2966 2967 2968 2969 2969 2969 2970 2970 2970 2970 2970 2970 2970 2970 2969
2983 2983 2984 2988 2985 2985 2985 2987 2989 2990 2987 2986 2984 2979 2979 2981 2980 2979 2978 2977 2977 2977 2976 2976 2975 2975 2974 2974 2973 2972 2972 2970 2970 2970 2969 2968 2966 2965 2964 2964 2965 2966 2967 2967 2968 2968 2970 2970 2970 2970 2970 2969 2968 2967
2972 2972 2979 2979 2977 2977 2980 2983 2985 2985 2980 2979 2978 2978 2975 2976 2975 2975 2974 2973 2974 2974 2974 2974 2973 2973 2972 2970 2970 2969 2969 2969 2968 2967 2967 2965 2964 2962 2962 2962 2963 2964 2965 2965 2966 2967 2968 2968 2968 2967 2966 2966 2964 2963
2962 2968 2968 2968 2969 2972 2973 2975 2979 2977 2972 2972 2974 2974 2972 2971 2971 2970 2969 2969 2970 2970 2969 2970 2970 2969 2968 2967 2967 2966 2965 2965 2965 2965 2965 2964 2963 2962 2961 2961 2962 2963 2964 2964 2964 2964 2965 2965 2964 2963 2962 2961 2959 2957
2957 2957 2958 2960 2962 2966 2966 2967 2970 2969 2967 2967 2968 2969 2968 2966 2966 2965 2965 2965 2965 2965 2965 2964 2964 2961 2962 2963 2962 2961 2961 2961 2961 2962 2961 2962 2962 2961 2960 2959 2960 2960 2961 2961 2961 2961 2961 2960 2959 2958 2956 2955 2954 2952
2946 2948 2950 2953 2956 2959 2960 2961 2960 2963 2962 2962 2964 2963 2962 2962 2962 2961 2962 2962 2962 2961 2960 2958 2957 2957 2957 2957 2956 2955 2955 2954 2955 2956 2956 2956 2956 2956 2956 2956 2956 2956 2956 2956 2956 2956 2956 2955 2954 2953 2951 2950 2948 2947
2937 2938 2942 2945 2949 2951 2952 2951 2955 2958 2957 2957 2958 2958 2958 2959 2958 2958 2958 2958 2956 2955 2954 2953 2952 2951 2950 2949 2948 2948 2948 2948 2948 2948 2949 2950 2950 2950 2950 2951 2951 2951 2951 2951 2951 2950 2950 2949 2948 2947 2946 2945 2943 2942
2928 2934 2937 2941 2941 2941 2945 2947 2950 2953 2954 2952 2953 2953 2954 2954 2954 2955 2954 2953 2951 2951 2950 2949 2947 2946 2945 2944 2943 2942 2941 2940 2940 2940 2940 2941 2942 2944 2944 2944 2944 2944 2944 2944 2944 2943 2943 2942 2941 2941 2940 2939 2938 2936
2924 2928 2931 2934 2937 2938 2941 2944 2947 2947 2948 2948 2949 2948 2949 2950 2950 2950 2949 2948 2947 2947 2946 2946 2944 2943 2942 2941 2939 2937 2935 2934 2934 2933 2932 2932 2933 2934 2936 2936 2936 2936 2936 2936 2936 2936 2935 2935 2934 2934 2933 2932 2931 2930
2920 2922 2924 2927 2930 2933 2935 2938 2940 2942 2944 2944 2944 2944 2945 2945 2945 2944 2943 2943 2944 2943 2942 2942 2941 2940 2940 2938 2936 2935 2933 2930 2928 2926 2925 2925 2925 2925 2926 2928 2928 2928 2929 2928 2928 2928 2928 2928 2927 2926 2926 2925 2924 2924
2916 2918 2922 2922 2926 2930 2932 2934 2935 2937 2938 2939 2940 2940 2940 2941 2940 2939 2937 2939 2939 2938 2938 2938 2937 2937 2936 2935 2933 2932 2930 2929 2927 2924 2921 2920 2919 2918 2919 2921 2921 2921 2921 2921 2921 2920 2920 2920 2919 2919 2919 2918 2918 2917
2913 2915 2919 2920 2923 2926 2928 2929 2930 2931 2933 2935 2936 2936 2935 2936 2935 2933 2931 2933 2933 2932 2932 2932 2932 2932 2931 2931 2930 2928 2927 2926 2924 2922 2921 2919 2916 2915 2915 2915 2916 2916 2914 2914 2914 2914 2913 2913 2912 2912 2912 2911 2911 2910
2910 2912 2915 2917 2918 2921 2923 2925 2927 2928 2929 2930 2930 2931 2932 2931 2927 2926 2926 2926 2926 2926 2926 2926 2926 2926 2926 2925 2924 2923 2922 2920 2918 2917 2916 2915 2914 2913 2912 2911 2910 2910 2909 2908 2908 2907 2907 2906 2905 2905 2904 2904 2903 2902
2908 2911 2914 2916 2918 2920 2921 2922 2923 2924 2924 2924 2925 2925 2925 2924 2923 2922 2922 2921 2921 2921 2920 2920 2921 2920 2920 2919 2918 2916 2915 2913 2911 2909 2908 2908 2908 2907 2906 2905 2904 2903 2903 2902 2901 2900 2900 2899 2898 2897 2896 2895 2895 2893
2907 2910 2913 2914 2916 2916 2917 2918 2919 2919 2920 2919 2918 2917 2917 2916 2917 2917 2916 2916 2915 2913 2911 2911 2911 2911 2909 2908 2907 2906 2904 2903 2901 2900 2899 2898 2899 2900 2898 2896 2895 2895 2895 2894 2893 2892 2891 2890 2890 2889 2888 2887 2886 2885
2904 2906 2907 2908 2910 2910 2912 2912 2911 2911 2911 2910 2908 2907 2905 2905 2905 2905 2903 2902 2901 2901 2901 2901 2900 2899 2896 2895 2894 2894 2894 2892 2890 2889 2888 2888 2888 2888 2888 2887 2886 2886 2885 2884 2883 2882 2882 2881 2880 2879 2878 2877 2877 2875
2900 2902 2903 2904 2905 2905 2905 2904 2904 2903 2902 2900 2900 2897 2894 2892 2892 2892 2892 2891 2890 2889 2889 2887 2885 2883 2881 2880 2879 2878 2878 2879 2878 2878 2877 2876 2875 2875 2875 2875 2875 2875 2875 2874 2873 2872 2871 2870 2869 2868 2868 2867 2866 2865
2898 2899 2900 2900 2900 2901 2900 2898 2896 2894 2893 2891 2889 2888 2885 2882 2878 2877 2876 2876 2876 2875 2875 2872 2869 2869 2868 2866 2864 2863 2862 2863 2864 2864 2863 2863 2863 2862 2862 2862 2863 2864 2864 2863 2862 2861 2860 2859 2859 2858 2858 2857 2856 2854
2897 2897 2896 2895 2895 2893 2893 2891 2887 2884 2882 2880 2878 2876 2873 2870 2866 2865 2864 2862 2861 2859 2858 2858 2857 2855 2854 2852 2851 2851 2849 2849 2849 2849 2850 2850 2850 2850 2850 2851 2852 2852 2852 2851 2851 2851 2850 2850 2849 2848 2847 2846 2845 2844